TimeCST,TemperatureF,Dew PointF,Humidity,Sea Level PressureIn,VisibilityMPH,Wind Direction,Wind SpeedMPH,Gust SpeedMPH,PrecipitationIn,Events,Conditions,WindDirDegrees,DateUTC
12:15 AM,55.4,50.0,82,29.93,10.0,ESE,13.8,23.0,N/A,,Overcast,110,2013-02-21 06:15:00
12:35 AM,55.4,50.0,82,29.91,10.0,East,12.7,17.3,N/A,,Overcast,100,2013-02-21 06:35:00
12:55 AM,55.4,51.8,88,29.90,10.0,East,15.0,27.6,N/A,,Overcast,100,2013-02-21 06:55:00
1:15 AM,55.4,51.8,88,29.89,10.0,East,16.1,24.2,N/A,,Overcast,100,2013-02-21 07:15:00
1:35 AM,55.4,51.8,88,29.89,10.0,East,18.4,24.2,N/A,,Overcast,100,2013-02-21 07:35:00
1:55 AM,55.4,51.8,88,29.88,10.0,East,17.3,23.0,N/A,,Overcast,100,2013-02-21 07:55:00
2:15 AM,55.4,51.8,88,29.86,10.0,East,17.3,24.2,N/A,,Overcast,100,2013-02-21 08:15:00
2:35 AM,55.4,53.6,94,29.86,10.0,East,17.3,23.0,N/A,,Overcast,90,2013-02-21 08:35:00
2:55 AM,55.4,53.6,94,29.86,10.0,East,16.1,24.2,N/A,,Overcast,100,2013-02-21 08:55:00
3:15 AM,55.4,53.6,94,29.84,10.0,East,15.0,24.2,N/A,,Overcast,90,2013-02-21 09:15:00
3:35 AM,57.2,53.6,88,29.84,10.0,East,12.7,21.9,N/A,,Overcast,100,2013-02-21 09:35:00
3:55 AM,57.2,53.6,88,29.83,10.0,East,12.7,18.4,N/A,,Overcast,100,2013-02-21 09:55:00
4:15 AM,57.2,53.6,88,29.83,10.0,East,15.0,21.9,N/A,,Overcast,100,2013-02-21 10:15:00
4:35 AM,59.0,55.4,88,29.83,10.0,East,13.8,19.6,N/A,,Overcast,90,2013-02-21 10:35:00
4:55 AM,59.0,55.4,88,29.83,10.0,East,15.0,-,N/A,,Overcast,100,2013-02-21 10:55:00
5:15 AM,59.0,55.4,88,29.83,10.0,East,16.1,21.9,N/A,,Overcast,100,2013-02-21 11:15:00
5:55 AM,59.0,55.4,88,29.83,10.0,East,15.0,23.0,N/A,,Overcast,100,2013-02-21 11:55:00
6:15 AM,60.8,57.2,88,29.84,10.0,ESE,15.0,21.9,N/A,,Overcast,110,2013-02-21 12:15:00
6:35 AM,60.8,57.2,88,29.84,10.0,ESE,12.7,23.0,N/A,,Overcast,110,2013-02-21 12:35:00
6:55 AM,59.0,55.4,88,29.84,10.0,ESE,15.0,24.2,N/A,,Overcast,110,2013-02-21 12:55:00
7:15 AM,59.0,57.2,94,29.85,10.0,ESE,12.7,19.6,N/A,,Overcast,110,2013-02-21 13:15:00
7:35 AM,60.8,57.2,88,29.84,7.0,ESE,13.8,21.9,N/A,Thunderstorm,Thunderstorm,110,2013-02-21 13:35:00
7:55 AM,60.8,59.0,94,29.84,10.0,ESE,16.1,27.6,N/A,,Light Drizzle,110,2013-02-21 13:55:00
8:15 AM,60.8,59.0,94,29.83,7.0,ESE,16.1,25.3,N/A,,Light Drizzle,110,2013-02-21 14:15:00
8:35 AM,60.8,59.0,94,29.84,10.0,ESE,13.8,21.9,N/A,,Overcast,110,2013-02-21 14:35:00
8:55 AM,62.6,60.8,94,29.84,10.0,ESE,13.8,23.0,N/A,,Overcast,110,2013-02-21 14:55:00
9:15 AM,62.6,60.8,94,29.84,10.0,ESE,16.1,25.3,N/A,,Overcast,110,2013-02-21 15:15:00
9:35 AM,62.6,60.8,94,29.83,10.0,ESE,15.0,24.2,N/A,,Overcast,110,2013-02-21 15:35:00
9:55 AM,62.6,60.8,94,29.83,10.0,ESE,15.0,21.9,N/A,,Overcast,120,2013-02-21 15:55:00
10:15 AM,64.4,60.8,88,29.83,10.0,ESE,19.6,23.0,N/A,,Overcast,120,2013-02-21 16:15:00
10:35 AM,62.6,62.6,100,29.82,4.0,ESE,13.8,21.9,0.01,Rain,Rain,120,2013-02-21 16:35:00
10:55 AM,62.6,62.6,100,29.82,3.0,ESE,11.5,-,0.08,Rain,Rain,110,2013-02-21 16:55:00
11:15 AM,62.6,62.6,100,29.81,5.0,ESE,11.5,-,N/A,,Drizzle,110,2013-02-21 17:15:00
11:35 AM,64.4,64.4,100,29.80,4.0,SE,8.1,-,0.01,Rain,Light Rain,130,2013-02-21 17:35:00
11:55 AM,66.2,64.4,94,29.79,5.0,SE,10.4,-,0.01,,Overcast,140,2013-02-21 17:55:00
12:15 PM,68.0,68.0,100,29.77,7.0,SSE,20.7,24.2,N/A,,Overcast,150,2013-02-21 18:15:00
12:35 PM,68.0,66.2,94,29.76,5.0,SSE,18.4,-,N/A,,Overcast,150,2013-02-21 18:35:00
12:55 PM,68.0,66.2,94,29.74,5.0,SSE,15.0,23.0,N/A,,Overcast,160,2013-02-21 18:55:00
1:15 PM,68.0,68.0,100,29.73,7.0,SSE,15.0,21.9,N/A,,Overcast,160,2013-02-21 19:15:00
1:35 PM,68.0,68.0,100,29.72,5.0,SSE,18.4,23.0,N/A,,Overcast,160,2013-02-21 19:35:00
1:55 PM,68.0,68.0,100,29.71,4.0,SSE,17.3,28.8,N/A,,Overcast,160,2013-02-21 19:55:00
2:15 PM,69.8,69.8,100,29.70,4.0,SSE,20.7,27.6,N/A,,Overcast,160,2013-02-21 20:15:00
2:35 PM,71.6,69.8,94,29.70,5.0,South,21.9,28.8,N/A,,Overcast,170,2013-02-21 20:35:00
2:55 PM,71.6,69.8,94,29.71,5.0,South,19.6,27.6,N/A,,Overcast,180,2013-02-21 20:55:00
3:15 PM,71.6,69.8,94,29.71,4.0,South,19.6,26.5,N/A,Rain,Light Rain,170,2013-02-21 21:15:00
3:35 PM,71.6,69.8,94,29.72,4.0,South,16.1,-,N/A,,Overcast,180,2013-02-21 21:35:00
3:55 PM,71.6,69.8,94,29.72,5.0,South,19.6,25.3,N/A,,Overcast,180,2013-02-21 21:55:00
4:15 PM,71.6,69.8,94,29.73,5.0,South,17.3,24.2,N/A,,Overcast,180,2013-02-21 22:15:00
4:35 PM,71.6,69.8,94,29.73,5.0,South,17.3,24.2,N/A,,Overcast,180,2013-02-21 22:35:00
4:55 PM,69.8,69.8,100,29.74,4.0,South,18.4,-,N/A,,Overcast,180,2013-02-21 22:55:00
5:15 PM,69.8,68.0,94,29.74,4.0,South,12.7,-,N/A,,Overcast,180,2013-02-21 23:15:00
5:35 PM,69.8,68.0,94,29.75,4.0,South,12.7,18.4,N/A,,Overcast,180,2013-02-21 23:35:00
5:55 PM,69.8,69.8,100,29.76,4.0,South,12.7,-,N/A,,Overcast,190,2013-02-21 23:55:00
6:15 PM,69.8,68.0,94,29.76,5.0,South,9.2,-,N/A,,Overcast,180,2013-02-22 00:15:00
6:35 PM,69.8,68.0,94,29.78,5.0,South,8.1,-,N/A,,Overcast,190,2013-02-22 00:35:00
6:55 PM,68.0,68.0,100,29.78,5.0,South,5.8,-,N/A,,Overcast,190,2013-02-22 00:55:00
7:15 PM,69.8,68.0,94,29.79,5.0,SSW,6.9,-,N/A,,Overcast,200,2013-02-22 01:15:00
7:35 PM,69.8,68.0,94,29.80,5.0,SW,4.6,-,N/A,,Overcast,220,2013-02-22 01:35:00
7:55 PM,69.8,68.0,94,29.82,5.0,SSW,5.8,-,N/A,,Overcast,210,2013-02-22 01:55:00
8:15 PM,69.8,68.0,94,29.82,4.0,SW,5.8,-,N/A,,Overcast,230,2013-02-22 02:15:00
8:35 PM,69.8,68.0,94,29.83,5.0,West,5.8,-,N/A,,Overcast,260,2013-02-22 02:35:00
8:55 PM,68.0,68.0,100,29.84,5.0,WNW,4.6,-,N/A,,Overcast,300,2013-02-22 02:55:00
9:15 PM,68.0,66.2,94,29.84,7.0,Calm,Calm,-,N/A,,Mostly Cloudy,0,2013-02-22 03:15:00
9:35 PM,66.2,64.4,94,29.86,7.0,Calm,Calm,-,N/A,,Mostly Cloudy,0,2013-02-22 03:35:00
9:55 PM,68.0,64.4,88,29.86,10.0,Calm,Calm,-,N/A,,Mostly Cloudy,0,2013-02-22 03:55:00
10:15 PM,64.4,62.6,94,29.86,10.0,NNW,3.5,-,N/A,,Mostly Cloudy,340,2013-02-22 04:15:00
10:35 PM,64.4,62.6,94,29.86,10.0,Calm,Calm,-,N/A,,Scattered Clouds,0,2013-02-22 04:35:00
10:55 PM,64.4,62.6,94,29.86,10.0,Calm,Calm,-,N/A,,Scattered Clouds,0,2013-02-22 04:55:00
11:15 PM,62.6,62.6,100,29.86,10.0,Calm,Calm,-,N/A,,Mostly Cloudy,0,2013-02-22 05:15:00
11:35 PM,62.6,60.8,94,29.87,7.0,Calm,Calm,-,N/A,,Scattered Clouds,0,2013-02-22 05:35:00
11:55 PM,60.8,60.8,100,29.86,7.0,North,3.5,-,N/A,,Clear,350,2013-02-22 05:55:00